Location: Mercogliano
(40.9167°N, 14.7333°E)
Time: 07:09:33
(UTC+00:00)

Cosmos 2150 Rocket - Pass Details

Date: 26 January 2021
Orbit: 748 x 808 km, 74.0° (Epoch: 04 March)

Event Time Altitude Azimuth Distance (km) Brightness Sun altitude
Rises 19:45:28 0° 238° (WSW) 3,186 7.7 -40.4°
Reaches altitude 10° 19:48:24 10° 255° (WSW) 2,271 7.0 -41.0°
Enters shadow 19:49:54 16° 270° (W) 1,917 6.6 -41.2°
